This demonstration page uses our WeatherBlox Daily Observations layout. Learn more.

Left ArrowRight Arrow

Hourly Observations for October 1, 2020

Temp ( °F °C ) Dew Point ( °F °C ) Humidity (%) Winds ( mph kmh ) Pressure ( in mb ) Visibility ( mi km ) Precip ( " mm )
12:15 am 00:15 Clear 50 10 45 7 82 82 SW 6 9 29.95 1014 10 16 N/A
12:35 am 00:35 Clear 50 10 45 7 82 82 SW 6 9 29.96 1015 10 16 N/A
12:55 am 00:55 Clear 50 10 45 7 82 82 SW 7 11 29.96 1015 10 16 N/A
1:15 am 01:15 Clear 50 10 45 7 82 82 SW 7 11 29.96 1015 10 16 N/A
1:35 am 01:35 Clear 50 10 45 7 82 82 SW 7 11 29.95 1014 10 16 N/A
1:55 am 01:55 Clear 50 10 45 7 82 82 SW 7 11 29.95 1014 10 16 N/A
2:15 am 02:15 Clear 50 10 45 7 82 82 SW 7 11 29.95 1014 10 16 N/A
2:35 am 02:35 Clear 50 10 45 7 82 82 SW 7 11 29.95 1014 10 16 N/A
2:55 am 02:55 Clear 50 10 45 7 82 82 SW 7 11 29.96 1015 10 16 N/A
3:15 am 03:15 Clear 50 10 45 7 82 82 SW 6 9 29.96 1015 10 16 N/A
3:35 am 03:35 Clear 48 9 45 7 87 87 WSW 7 11 29.97 1015 10 16 N/A
3:55 am 03:55 Clear 48 9 45 7 87 87 SW 7 11 29.97 1015 10 16 N/A
4:15 am 04:15 Clear 46 8 45 7 93 93 WSW 7 11 29.98 1015 10 16 N/A
4:35 am 04:35 Clear 46 8 45 7 93 93 WSW 8 13 29.98 1015 10 16 N/A
4:55 am 04:55 Clear 45 7 45 7 100 100 WSW 7 11 29.97 1015 10 16 N/A
5:15 am 05:15 Clear 45 7 45 7 100 100 WSW 7 11 29.98 1015 10 16 N/A
5:35 am 05:35 Clear 45 7 43 6 93 93 WSW 6 9 29.98 1015 10 16 N/A
5:55 am 05:55 Clear 45 7 45 7 100 100 WSW 6 9 29.98 1015 10 16 N/A
6:15 am 06:15 Clear 43 6 43 6 100 100 WSW 6 9 29.98 1015 10 16 N/A
6:35 am 06:35 Clear 43 6 43 6 100 100 SW 6 9 29.99 1016 10 16 N/A
6:55 am 06:55 Clear 43 6 43 6 100 100 SW 5 7 29.99 1016 10 16 N/A
7:15 am 07:15 Clear 43 6 43 6 100 100 SW 5 7 29.99 1016 10 16 N/A
7:35 am 07:35 Clear 43 6 43 6 100 100 SSW 3 6 29.99 1016 10 16 N/A
7:55 am 07:55 Sunny 43 6 43 6 100 100 N N/A 29.99 1016 10 16 N/A
8:15 am 08:15 Sunny 43 6 43 6 100 100 N N/A 30.00 1016 10 16 N/A
8:35 am 08:35 Sunny 45 7 45 7 100 100 SW 3 6 30.00 1016 10 16 N/A
8:55 am 08:55 Sunny 48 9 46 8 94 94 WSW 3 6 30.00 1016 10 16 N/A
9:15 am 09:15 Sunny 50 10 46 8 88 88 WSW 6 9 30.00 1016 10 16 N/A
9:35 am 09:35 Sunny 52 11 46 8 82 82 WSW 9 15 30.00 1016 10 16 N/A
9:55 am 09:55 Sunny 55 13 46 8 72 72 WSW 7 11 29.99 1016 10 16 N/A
10:15 am 10:15 Sunny 57 14 46 8 67 67 W 9 15 29.99 1015 10 16 N/A
10:35 am 10:35 Sunny 59 15 45 7 59 59 WSW 12 19 29.98 1015 10 16 N/A
10:55 am 10:55 Sunny 59 15 46 8 63 63 WSW 10 17 29.99 1016 10 16 N/A
11:15 am 11:15 Sunny 61 16 45 7 55 55 W 12 19 29.99 1016 10 16 N/A
11:35 am 11:35 Sunny 63 17 45 7 52 52 W 13 20 29.99 1015 10 16 N/A
11:55 am 11:55 Sunny 63 17 45 7 52 52 W 10 17 29.99 1015 10 16 N/A
12:15 pm 12:15 Partly Cloudy 64 18 45 7 49 49 W 12 19 29.98 1015 10 16 N/A
12:35 pm 12:35 Mostly Cloudy 64 18 45 7 49 49 W 17 28 29.99 1016 10 16 N/A
12:55 pm 12:55 Cloudy 63 17 45 7 52 52 WNW 16 26 30.00 1016 10 16 N/A
1:15 pm 13:15 Cloudy 61 16 43 6 52 52 WNW 14 22 30.00 1016 10 16 N/A
1:35 pm 13:35 Cloudy 61 16 41 5 48 48 W 15 24 30.00 1016 10 16 N/A
1:55 pm 13:55 Partly Cloudy 63 17 43 6 49 49 W 12 19 30.00 1016 10 16 N/A
2:15 pm 14:15 Partly Cloudy 61 16 43 6 52 52 W 15 24 30.00 1016 10 16 N/A
2:35 pm 14:35 Mostly Cloudy 64 18 45 7 49 49 WNW 16 26 29.99 1016 10 16 N/A
2:55 pm 14:55 Partly Cloudy 64 18 45 7 49 49 W 14 22 29.98 1015 10 16 N/A
3:15 pm 15:15 Mostly Cloudy 61 16 43 6 52 52 W 17 28 30.00 1016 10 16 N/A
3:35 pm 15:35 Mostly Cloudy 64 18 45 7 49 49 WNW 13 20 29.98 1015 10 16 N/A
3:55 pm 15:55 Mostly Cloudy 64 18 43 6 46 46 WNW 21 33 29.98 1015 10 16 N/A
4:15 pm 16:15 Mostly Cloudy 61 16 41 5 48 48 W 22 35 29.99 1016 10 16 N/A
4:35 pm 16:35 Partly Cloudy 63 17 43 6 49 49 W 17 28 29.99 1015 10 16 N/A
4:55 pm 16:55 Partly Cloudy 64 18 41 5 43 43 W 22 35 29.98 1015 10 16 N/A
5:15 pm 17:15 Mostly Cloudy 64 18 41 5 43 43 WNW 18 30 29.98 1015 10 16 N/A
5:35 pm 17:35 Mostly Cloudy 59 15 39 4 48 48 WNW 14 22 30.00 1016 10 16 N/A
5:55 pm 17:55 Mostly Cloudy 59 15 43 6 55 55 NW 20 31 30.02 1017 10 16 N/A
6:15 pm 18:15 Partly Cloudy 59 15 43 6 55 55 WNW 18 30 30.02 1017 10 16 N/A
6:36 pm 18:36 Sunny 57 14 43 6 59 59 W 15 24 30.04 1017 10 16 N/A
6:55 pm 18:55 Sunny 57 14 41 5 55 55 WNW 16 26 30.04 1017 10 16 N/A
7:15 pm 19:15 Sunny 55 13 41 5 59 59 W 16 26 30.05 1018 10 16 N/A
7:35 pm 19:35 Partly Cloudy 54 12 43 6 67 67 W 15 24 30.06 1018 10 16 N/A
7:55 pm 19:55 Cloudy 52 11 45 7 77 77 W 10 17 30.08 1019 10 16 N/A
8:15 pm 20:15 Cloudy 52 11 45 7 77 77 W 12 19 30.08 1019 10 16 N/A
8:35 pm 20:35 Cloudy 52 11 45 7 77 77 WNW 10 17 30.09 1019 10 16 N/A
8:55 pm 20:55 Partly Cloudy 50 10 46 8 88 88 WNW 9 15 30.10 1019 10 16 N/A
9:15 pm 21:15 Partly Cloudy 48 9 46 8 94 94 W 7 11 30.11 1020 10 16 N/A
9:35 pm 21:35 Partly Cloudy 48 9 46 8 94 94 W 6 9 30.11 1020 10 16 N/A
9:55 pm 21:55 Partly Cloudy 48 9 46 8 94 94 NW 9 15 30.12 1020 10 16 N/A
10:15 pm 22:15 Mostly Cloudy 50 10 46 8 88 88 NW 10 17 30.13 1020 10 16 N/A
10:35 pm 22:35 Mostly Cloudy 50 10 46 8 88 88 NW 6 9 30.12 1020 10 16 N/A
10:55 pm 22:55 Partly Cloudy 48 9 46 8 94 94 NW 6 9 30.13 1020 10 16 N/A
11:15 pm 23:15 Partly Cloudy 46 8 45 7 93 93 NW 6 9 30.14 1021 10 16 N/A
11:35 pm 23:35 Clear 46 8 45 7 93 93 WNW 3 6 30.15 1021 10 16 N/A
11:55 pm 23:55 Clear 45 7 45 7 100 100 WNW 5 7 30.14 1021 10 16 N/A

Powered by AerisWeather